Flag for Hungary Weather past 2 weeks in Debrecen, Hungary

Now
64 °F

Sunny.


Feels Like: 64 °F
Forecast: 63 / 90 °F
Wind: No wind

Location: Debrecen Airport

Current Time: Aug 2, 2015 at 7:31:24 AM

Latest Report: Aug 2, 2015 at 6:45 AM


Visibility: 10 mi

Pressure: 30.09 "Hg

Humidity: 78%

Dew point: 57 °F

Location of DebrecenLocation

Historic Weather in Debrecen — Graph

°F

Debrecen temperature yesterday

Maximum temperature yesterday: 84 °F (at 3:15 PM)
Minimum temperature yesterday: 55 °F (at 4:45 AM)
Average temperature yesterday: 72 °F

Past Weeks' High & Low Weather Summary

 TemperatureHumidityPressure
High97 °F (Jul 22, 5:15 PM)100% (Jul 28, 4:45 AM)30.09 "Hg (Jul 28, 4:45 AM)
Low55 °F (Aug 1, 4:45 AM)25% (Jul 31, 5:45 PM)29.74 "Hg (Jul 25, 2:45 PM)
Average78 °F55%29.91 "Hg
* Reported Jul 18 6:15 AM — Aug 2 6:15 AM, Debrecen, Weather by CustomWeather, © 2015

Note: Actual official high and low records may vary slightly from our data, if they occured in-between our weather recording intervals... More about our weather records

Advertising

Debrecen weather history for previous 24 hours

 ConditionsComfort  
Time TempWeatherWind HumidityBarometerVisibility
6:15 AM
Sun, Aug 2
63 °FSunny.No wind83%30.09 "Hg10 mi
5:45 AM61 °FClear.No wind83%30.07 "Hg10 mi
4:45 AM59 °FClear.No wind88%30.07 "Hg10 mi
4:15 PM
Sat, Aug 1
84 °FSunny.3 mph27%30.04 "Hg10 mi
3:45 PM84 °FSunny.2 mph27%30.04 "Hg10 mi
3:15 PM84 °FSunny.3 mph27%30.04 "Hg10 mi
2:45 PM82 °FSunny.6 mph28%30.04 "Hg10 mi
2:15 PM82 °FSunny.9 mph30%30.07 "Hg10 mi
1:45 PM81 °FSunny.7 mph30%30.07 "Hg10 mi
1:15 PM81 °FSunny.6 mph34%30.07 "Hg10 mi
12:45 PM81 °FSunny.9 mph30%30.07 "Hg10 mi
12:15 PM79 °FSunny.9 mph37%30.07 "Hg10 mi
11:45 AM77 °FSunny.10 mph39%30.07 "Hg10 mi
11:15 AM77 °FSunny.10 mph42%30.07 "Hg10 mi
10:45 AM75 °FSunny.10 mph47%30.09 "Hg10 mi
10:15 AM73 °FSunny.9 mph50%30.09 "Hg10 mi
9:45 AM72 °FSunny.12 mph53%30.09 "Hg10 mi
9:15 AM70 °FSunny.12 mph57%30.07 "Hg10 mi
8:45 AM68 °FSunny.10 mph56%30.09 "Hg10 mi
8:15 AM64 °FSunny.12 mph60%30.09 "Hg10 mi
7:45 AM63 °FSunny.10 mph59%30.09 "Hg10 mi
7:15 AM61 °FSunny.12 mph63%30.09 "Hg10 mi
Weather by CustomWeather, © 2015

See weather overviewHow to use our weather pages